Location: Hautefontaine
(49.3651°N, 3.0637°E)
Time: 13:19:49
(UTC+00:00)

Daily predictions for brighter satellites

Satellite Brightness Start Highest point End
(mag) Time Altitude Azimuth Time Altitude Azimuth Time Altitude Azimuth
Meteor 2-3 Rocket 3.8 19:42:42 10° N 19:48:19 66° ENE 19:53:55 10° SSE
CZ-4C R/B 2.4 19:46:21 10° S 19:49:59 31° ESE 19:54:24 10° NE
Cosmos 292 Rocket 3.8 19:46:42 10° NNW 19:51:30 74° ENE 19:56:14 10° SSE
Cosmos 2084 3.9 19:47:36 10° SW 19:51:42 64° NW 19:55:49 10° NE
CSL-04 Rocket 4.4 19:47:26 10° S 19:52:51 58° W 19:58:15 10° NNW
Cosmos 1833 Rocket 2.7 19:47:34 10° SSW 19:53:10 79° ESE 19:58:49 10° NNE
CZ-4B DEB 4.3 19:47:48 10° SSE 19:53:19 85° WSW 19:58:54 10° NNW
ATLAS 2AS CENTAUR R/B 2.9 19:47:27 10° SW 19:54:26 82° NW 20:01:18 10° NE
CZ-4B R/B 3.3 19:50:09 10° SSE 19:55:48 76° ENE 20:01:27 10° NNW
Cosmos 1892 Rocket 4.4 19:53:37 10° N 19:57:36 34° ENE 20:01:32 10° SE
Okean-O 3.3 19:53:44 10° SE 19:57:48 39° ENE 20:01:53 10° N
Cosmos 2360 Rocket 4.4 19:57:00 10° N 19:59:46 14° NNE 20:02:31 10° ENE
USA 305 3.4 19:57:01 10° WNW 20:00:59 48° NNE 20:04:43 10° E
Cosmos 1455 Rocket 3.9 19:58:01 10° SSE 20:01:54 31° E 20:05:49 10° NNE
Gbstr 26 Del rocket 3.3 19:56:31 10° WNW 20:01:56 90° SSW 20:06:19 10° ESE
SL-4 R/B 2.8 19:59:00 10° W 20:02:32 36° SSW 20:06:06 10° SSE
Spot 2 Rocket 3.8 19:58:38 10° SE 20:03:29 52° ENE 20:08:22 10° N
MetOp-B 4.2 19:58:23 10° SSE 20:03:44 88° ENE 20:09:08 10° NNW
Cosmos 2016 Rocket 4.5 20:01:11 10° SSE 20:07:00 42° E 20:12:47 10° NNE
Cosmos 2173 Rocket 4.0 20:02:46 10° S 20:08:51 70° E 20:15:03 10° NNE
Okean 1 Rocket 3.0 20:04:33 10° S 20:08:54 70° E 20:13:19 10° NNE
ADEOS 3.6 20:04:19 10° SSE 20:09:31 88° ENE 20:14:47 10° NNW
Helios 1A Rocket 2.5 20:12:05 10° N 20:15:15 73° WNW 20:18:22 10° SSW
Meteor 1-27 4.5 20:17:12 10° SSE 20:22:38 50° E 20:28:02 10° NNE
ERS-1 Rocket 3.7 20:19:32 10° S 20:24:26 54° W 20:29:23 10° NNW
SKYMED 3 4.3 20:20:57 10° NNE 20:24:54 90° SE 20:28:51 10° SSW
SJ 16-02 4.3 20:25:58 10° WNW 20:27:02 11° W 20:28:06 10° WSW
ATLAS 3B R/B 3.2 20:20:15 10° NW 20:27:57 66° WSW 20:34:58 11° SSE
Cosmos 2369 4.2 20:22:47 10° NNW 20:28:21 49° NE 20:33:06 14° SE
Cosmos 2322 Rocket 4.2 20:24:40 10° N 20:28:35 19° NE 20:32:29 10° E
DEBRIS 3.0 20:28:17 10° WSW 20:30:59 62° SSE 20:38:06 10° ENE
Cosmos 1452 Rocket 3.5 20:26:25 10° S 20:31:33 62° ESE 20:36:44 10° NNE
Cosmos 2082 Rocket 2.8 20:26:25 10° S 20:31:34 36° ESE 20:36:44 10° NE
Cosmos 1741 Rocket 4.1 20:26:21 10° NNW 20:31:42 81° WSW 20:36:43 11° SSE
SL-08 R/B 3.3 20:28:23 10° NNE 20:33:17 86° ESE 20:38:04 10° SSW
Sich 1 Rocket 3.8 20:32:10 10° SSW 20:36:30 72° W 20:40:53 10° N
Cosmos 968 Rocket 4.4 20:32:06 10° NNW 20:37:05 46° WSW 20:42:04 10° S
Cosmos 1331 Rocket 4.1 20:33:11 10° SSW 20:38:27 85° WNW 20:43:42 10° NNE
Cosmos 1802 Rocket 4.0 20:32:17 10° S 20:38:29 81° E 20:44:39 10° N
YAOGAN 11 4.1 20:35:19 10° NNE 20:39:43 68° ESE 20:44:08 10° S
CZ-4B R/B 3.9 20:36:55 16° SE 20:40:28 45° ENE 20:45:03 10° N
Cosmos 1302 Rocket 4.1 20:42:50 10° S 20:47:50 53° ESE 20:52:52 10° NNE
Cosmos 1697 Rocket 4.0 20:45:09 10° NW 20:50:09 34° WSW 20:55:07 10° S
CZ-2C R/B 3.2 20:49:47 21° ESE 20:50:42 26° ENE 20:53:07 10° N
Cosmos 2151 4.0 20:48:04 10° N 20:51:42 29° ENE 20:53:43 19° ESE
Meteor 2-12 Rocket 4.4 20:46:16 10° N 20:52:23 82° E 20:57:39 14° SSE
Terra 3.3 20:48:35 10° SSW 20:52:47 33° W 20:57:02 10° NNW
NOSS 3-3 (A) 4.1 20:49:14 10° S 20:53:55 37° ESE 20:59:21 10° NE
SL-16 R/B 3.1 20:51:14 10° NNW 20:56:31 37° NE 21:00:34 16° ESE
COSMOS 2406 4.1 20:54:43 18° SSE 20:57:44 29° ESE 21:02:35 10° NE
Cosmos 1743 3.1 20:58:13 10° NNW 21:01:06 42° W 21:03:16 15° SSW
Cosmos 2228 2.8 20:58:23 13° S 21:02:02 81° E 21:06:10 10° NNE
USA 186 2.7 21:00:42 16° SSW 21:02:26 34° W 21:04:58 10° NNW
USA 306 3.7 20:59:52 10° SSW 21:00:59 17° SSW 21:00:59 17° SSW
Cosmos 1782 2.6 21:00:49 12° SSW 21:04:02 76° W 21:07:35 10° N
SPOT 3 Rocket 3.5 21:02:10 19° SSE 21:05:59 88° ENE 21:11:10 10° NNW
Cosmos 44 Rocket 3.7 21:05:26 10° SW 21:10:30 72° NW 21:15:43 10° NE
Cosmos 2333 Rocket 3.0 21:06:33 10° NNW 21:11:58 43° NE 21:15:41 19° ESE
Cosmos 1626 Rocket 3.6 21:08:04 10° N 21:12:24 65° ENE 21:14:41 27° SSE
CZ-4B R/B 2.5 21:13:30 27° S 21:15:10 70° WSW 21:18:35 10° NNW
Cosmos 1607 3.8 21:09:04 10° SSW 21:15:12 76° SE 21:21:29 10° NE
Cosmos 1980 Rocket 3.0 21:13:31 10° NW 21:18:54 44° WSW 21:23:04 16° S
Okean O Rocket 3.0 21:15:58 10° SSW 21:19:50 33° W 21:23:44 10° NNW
ISS -3.9 21:17:26 10° WSW 21:20:45 71° SSE 21:24:06 10° ENE
Cosmos 2233 Rocket 4.1 21:15:09 10° SSW 21:21:22 78° W 21:27:34 10° N
Helios 1B rocket 4.1 21:21:08 14° E 21:22:12 16° ENE 21:24:22 10° NNE
NOSS 3-3 (C) 3.9 21:17:31 11° SSW 21:22:21 48° ESE 21:28:13 10° NE
USA 305 2.5 21:22:28 10° WNW 21:26:31 63° SW 21:27:30 42° SSE
Cosmos 1933 3.5 21:27:23 36° SE 21:28:22 46° E 21:32:02 10° NNE
IRS-1C Rocket 4.2 21:25:22 23° S 21:28:45 76° WSW 21:34:03 10° NNW
Geosat 4.3 21:25:56 10° NE 21:30:42 43° ESE 21:32:49 28° SSE
Tsikada Rocket 4.4 21:25:34 10° NNW 21:31:37 59° W 21:36:32 16° SSW
Okean-O 4.4 21:30:33 10° SSW 21:34:11 25° W 21:37:51 10° NW
Ariane Rocket 3.2 21:33:21 24° S 21:36:23 66° WSW 21:41:27 10° NNW
NOSS 3-4 (A) 4.3 21:30:05 10° NW 21:36:26 54° NE 21:42:12 17° ESE
Cosmos 2098 Rocket 3.9 21:34:56 31° SE 21:36:39 41° E 21:40:59 10° NNE
NOSS 3-4 (C) 4.3 21:30:41 10° NW 21:37:03 54° NE 21:42:51 17° ESE
CZ-4C R/B 2.9 21:33:34 10° WSW 21:37:51 47° NW 21:43:20 10° NE
Nadezhda 4 Rocket 4.3 21:33:03 10° N 21:38:59 50° ENE 21:42:00 28° SE
Cosmos 2360 Rocket 2.9 21:39:52 10° NNW 21:45:19 44° NE 21:48:24 24° ESE
Cosmos 2084 Rocket 3.9 21:41:46 10° NW 21:45:49 49° SW 21:47:04 36° S
Gbstr 26 Del rocket 4.1 21:43:43 10° W 21:47:46 28° SW 21:48:34 26° SSW
Cosmos 1461 4.1 21:50:45 23° E 21:50:45 23° E 21:52:40 10° ENE
Cosmos 1437 Rocket 2.3 21:48:46 53° S 21:49:29 81° ESE 21:53:05 10° NNE
Cosmos 1544 Rocket 3.7 21:49:37 27° SSW 21:51:55 73° W 21:56:16 10° N
BREEZE-M R/B 4.5 21:44:22 10° W 21:54:13 81° N 21:59:53 10° E
USA 234 3.9 21:50:35 10° ENE 21:56:23 33° SE 21:57:36 30° SSE
Cosmos 2219 Rocket 3.2 21:56:50 10° NNW 22:02:08 39° NE 22:05:14 22° ESE
DNEPR-1 R/B 4.4 21:59:47 10° NW 22:05:09 72° NE 22:08:22 30° SE
Cosmos 1805 2.6 22:01:55 10° N 22:05:12 85° E 22:05:16 84° ESE
BREEZE-M DEB (TANK) 3.4 22:03:57 10° W 22:04:53 19° W 22:04:53 19° W
Cosmos 1777 Rocket 4.1 22:04:03 10° NNW 22:09:18 68° ENE 22:11:10 39° SE
Cosmos 1992 Rocket 4.5 22:05:20 12° SW 22:10:05 60° WNW 22:15:16 10° NNE
Cosmos 1503 Rocket 4.3 22:05:18 10° NNW 22:10:26 55° ENE 22:12:20 35° ESE
Cosmos 909 Rocket 4.3 22:04:24 10° SW 22:10:42 72° NW 22:17:15 10° NE
Cosmos 2322 Rocket 2.3 22:07:58 10° NNW 22:13:39 72° ENE 22:15:56 37° SE
Cosmos 2082 Rocket 3.2 22:10:04 10° SW 22:15:32 45° NW 22:21:02 10° NNE
Cosmos 1536 4.2 22:12:38 10° NNE 22:15:36 23° ENE 22:15:51 22° ENE
Cosmos 1464 Rocket 3.9 22:18:24 33° S 22:21:25 90° SE 22:27:37 10° N
CZ-2C R/B 4.5 22:21:24 14° W 22:21:32 14° W 22:23:12 10° WNW
Cosmos 1486 Rocket 3.9 22:17:05 10° NNW 22:22:22 86° WSW 22:24:02 45° SSE
Cosmos 1825 Rocket 3.4 22:18:28 10° N 22:22:49 90° W 22:23:40 58° S
Cosmos 1375 Rocket 4.5 22:18:44 21° SSW 22:23:17 78° ESE 22:29:52 10° NE
Cosmos 1953 Rocket 3.7 22:20:55 10° N 22:25:15 57° ENE 22:25:57 50° ESE
Meteor 1-5 Rocket 4.3 22:20:17 10° NNW 22:25:57 73° W 22:28:14 38° S
ALOS 2 3.5 22:27:20 32° E 22:28:21 36° ENE 22:32:24 10° N
Cosmos 2151 4.4 22:24:52 10° NNW 22:28:25 28° W 22:29:47 23° WSW
ARIANE 5 R/B 3.3 22:27:36 38° ESE 22:28:34 44° ENE 22:32:49 10° N
Cosmos 2058 Rocket 3.9 22:28:26 34° E 22:28:36 34° E 22:32:32 10° NNE
COSMOS 2428 4.4 22:24:43 10° NNW 22:29:28 26° NE 22:33:44 12° E
Spot 4 4.4 22:28:39 37° ESE 22:29:56 47° ENE 22:34:32 10° N
Cosmos 220 Rocket 3.7 22:29:24 62° SSW 22:30:04 87° WNW 22:34:10 10° NNE
Cosmos 2278 3.8 22:28:14 10° NNW 22:33:53 63° WSW 22:35:41 42° S
CSL-04 DEB 3.9 22:34:56 86° ENE 22:34:56 86° ENE 22:38:32 10° NNW
SL-16 R/B 2.8 22:35:20 10° NW 22:40:43 45° WSW 22:42:24 35° SSW
COSMOS 2406 3.8 22:36:39 13° SW 22:41:42 56° NW 22:47:22 10° NNE
Cosmos 1092 Rocket 4.0 22:37:17 10° N 22:43:27 73° E 22:45:38 42° SSE
Helios 1A 3.2 22:39:46 10° N 22:43:38 59° WNW 22:44:22 49° WSW
PSLV R/B 4.5 22:43:16 10° NNE 22:47:01 33° E 22:47:01 33° E
CZ-2C R/B 3.6 22:45:18 10° NNE 22:49:43 63° ESE 22:50:07 60° SE
ACS3 Solar Sail 4.0 22:49:49 10° ENE 22:50:44 10° E 22:51:40 10° E
Aureole 1 Rocket 4.2 22:46:00 10° NNW 22:51:14 56° ENE 22:53:46 34° SE
Cosmos-2242 2.8 22:51:19 66° ESE 22:51:25 67° E 22:55:32 10° NNE
Okean 1 3.5 22:53:46 52° W 22:53:51 52° WNW 22:57:22 10° N
Helios 1B rocket 2.7 22:55:06 45° W 22:55:06 45° W 22:58:15 10° NNW
Cosmos 2034 Rocket 4.1 22:53:27 36° SSW 22:56:13 77° W 23:02:36 10° N
Cosmos 2333 Rocket 3.0 22:50:59 10° NW 22:56:14 39° WSW 22:57:41 33° SW
Cosmos 1271 Rocket 4.3 22:58:25 22° ENE 22:58:25 22° ENE 23:00:20 10° NE
ISS -3.1 22:54:21 10° W 22:57:24 54° NNW 22:57:24 54° NNW
CZ-2C R/B 3.9 22:56:33 23° ESE 22:58:46 32° ENE 23:03:22 10° N
Cosmos 1707 3.7 23:02:42 31° NNE 23:02:42 31° NNE 23:04:22 10° N
Cosmos 1975 4.0 22:58:51 10° N 23:02:05 28° ENE 23:02:05 28° ENE
Cosmos 1833 4.1 23:04:37 50° S 23:06:03 73° ESE 23:11:42 10° NNE
Meteor 2-2 Rocket 4.1 23:09:39 50° S 23:11:13 86° E 23:16:59 10° NNE
Cosmos 468 Rocket 4.2 23:11:08 48° SE 23:11:45 51° ESE 23:16:50 10° NNE
Cosmos 2221 3.4 23:14:13 35° E 23:14:13 35° E 23:17:55 10° NNE
Cosmos 2322 4.2 23:13:32 10° NNW 23:19:09 54° NE 23:21:36 32° ESE
Cosmos 2297 Rocket 4.0 23:18:41 15° ESE 23:19:13 16° E 23:22:26 10° ENE
Cosmos 540 Rocket 3.4 23:18:15 53° SSW 23:19:29 84° WNW 23:24:40 10° NNE
Cosmos 1634 Rocket 3.9 23:22:44 45° SSW 23:24:48 81° W 23:31:02 10° N
Cosmos 1461 4.0 23:24:21 26° W 23:25:38 35° NW 23:29:03 10° NNE
Cosmos 2279 Rocket 3.9 23:25:15 47° S 23:27:09 77° E 23:33:26 10° NNE
NOSS 3-4 (A) 4.2 23:20:55 10° NW 23:27:27 49° WSW 23:29:36 39° SSW
TSX-5 4.4 23:24:41 10° NNW 23:27:09 40° NNE 23:27:09 40° NNE
NOSS 3-4 (C) 4.2 23:21:31 10° NW 23:28:04 49° WSW 23:30:15 39° SSW
Cosmos 1898 Rocket 3.8 23:23:57 10° NNW 23:29:05 60° ENE 23:30:35 42° ESE
Cosmos 2360 Rocket 3.0 23:24:04 10° NW 23:29:13 37° WSW 23:30:08 34° SW
RESURS DK-1 3.3 23:27:39 10° NNW 23:31:26 39° NE 23:32:11 35° E
USA 290 3.8 23:35:47 30° NW 23:35:47 30° NW 23:38:24 10° N
NOSS 0 Rocket 4.4 23:33:42 10° NNW 23:39:48 57° NE 23:43:09 27° ESE
USA 234 3.2 23:33:20 10° ENE 23:39:55 89° SSE 23:44:54 19° WSW
Meteor 1-11 Rocket 4.0 23:36:27 10° N 23:42:08 62° ENE 23:43:52 42° SE
Cosmos 1763 Rocket 4.2 23:43:38 32° WSW 23:45:45 49° WNW 23:50:53 10° NNE
Cosmos 2219 Rocket 2.7 23:40:49 10° NW 23:46:07 43° WSW 23:46:54 40° SW
ARGOS Delta rocket 4.2 23:41:19 10° N 23:46:16 63° WNW 23:47:35 47° SW
Cosmos 1812 Rocket 3.6 23:48:46 61° ESE 23:48:57 62° E 23:53:19 10° NNE
BREEZE-M DEB (TANK) 3.9 23:36:14 10° WSW 23:50:39 86° SSE 23:54:19 10° ENE
Cosmos 1536 4.1 23:47:37 10° NNW 23:50:22 28° WNW 23:50:22 28° WNW
Cosmos 1842 4.1 23:55:55 34° NW 23:55:55 34° NW 23:58:12 10° N
Intercosmos 24 4.3 23:51:28 10° N 23:55:42 49° ENE 23:55:56 49° E
Cosmos 1470 3.6 23:53:03 10° NNW 23:55:21 36° NW 23:55:21 36° NW
